Regional Weather Roundup
Issued by NWS Northern Indiana

Home | Current Version | Previous Version | Graphics & Text | Print | Product List | Glossary On
Versions: 1 2 3 4 5 6 7 8 9 10 11 12 13 14 15 16 17 18 19 20 21 22 23 24 25 26 27 28 29 30 31 32 33 34 35 36 37 38 39 40 41 42 43 44 45 46 47 48 49 50
000
ASUS43 KIWX 220110
RWRIWX

KIWX WEATHER ROUNDUP
NATIONAL WEATHER SERVICE NORTHERN INDIANA
900 PM EDT THU AUG 21 2014

NOTE: "FAIR" INDICATES FEW OR NO CLOUDS BELOW 12,000 FEET WITH NO
SIGNIFICANT WEATHER AND/OR OBSTRUCTIONS TO VISIBILITY.

* THESE STATIONS ARE NOT UNDER NWS QUALITY CONTROL. THEY ALSO MAY NOT
  REPORT WEATHER SUCH AS PRECIPITATION OR FOG.

INZ001>027-220200-
NORTHERN INDIANA

CITY           SKY/WX    TMP DP  RH WIND       PRES   REMARKS
GARY*          CLOUDY    75  72  88 MISG      29.92R
VALPARAISO     CLOUDY    74  73  97 S7        29.93S FOG
MICHIGAN CITY* MOCLDY    72  72 100 S3        29.92S
LAPORTE*       CLOUDY    71  71 100 SE3       29.93F
KNOX*          CLOUDY    71  68  90 S6        29.92F
SOUTH BEND     CLOUDY    75  71  87 SE6       29.93F
ELKHART*       MOCLDY    73  73 100 SE5       29.95
GOSHEN         CLOUDY    75  72  90 S9        29.94F
MONTICELLO*    LGT RAIN  71  70  96 E7        29.93F
LOGANSPORT*    HVY RAIN  70  68  94 CALM      29.96R
ROCHESTER*     TSTM      75  75 100 SE7       29.96F
ANGOLA*        MOCLDY    73  66  78 S3        29.98R
FORT WAYNE     TSTM      74  72  93 E3        29.98S FOG
HUNTINGTON*    TSTM     N/A N/A N/A SE3       29.99R
PERU/GRISSOM   TSTM      71  71 100 NW21G40   29.98R
MARION*        LGT RAIN  77  73  86 E5        29.96F

$$
INZ028>050-220200-
CENTRAL INDIANA

CITY           SKY/WX    TMP DP  RH WIND       PRES   REMARKS
LAFAYETTE      CLOUDY    76  72  87 NE21      29.94R THUNDER
KOKOMO*        CLOUDY    79  73  83 N16G22    29.98R THUNDER
MUNCIE*        MOCLDY    80  73  79 S8        29.97F
INDIANAPOLIS   MOCLDY    81  74  79 S9        29.96S

$$
MIZ043>046-050>051-056>058-064>065-071>073-077>080-220200-
SOUTHWEST LOWER MICHIGAN

CITY           SKY/WX    TMP DP  RH WIND       PRES   REMARKS
BATTLE CREEK   MOCLDY    76  70  82 CALM      29.97F
BENTON HARBOR  PTCLDY    73  71  93 E6        29.92S
COLDWATER*     CLOUDY    75  71  87 CALM      29.96F
HILLSDALE*     CLOUDY    74  72  94 CALM      29.98F
HOLLAND        CLEAR     74  70  87 NE3       29.95F
GRAND RAPIDS   MOCLDY    74  72  93 CALM      29.96S
KALAMAZOO      MOCLDY    75  71  87 CALM      29.96S
STURGIS*       CLOUDY    73  72  94 SE3       29.96S
THREE RIVERS*  FAIR      74  71  88 SE3       29.96S

$$
OHZ001>008-015>018-024>025-220200-
NORTHWEST OHIO

CITY           SKY/WX    TMP DP  RH WIND       PRES   REMARKS
WAUSEON*       MOCLDY    75  72  88 SW6       29.97F
DEFIANCE       CLOUDY    76  71  85 SE3       29.97F
FINDLAY        PTCLDY    73  68  84 SE5       29.99S
TOLEDO EXPRESS CLOUDY    75  69  81 SW5       29.97S
TOLEDO METCALF CLOUDY    77  68  73 SW6       29.97F
LIMA           CLOUDY    74  71  91 S6        30.00F

$$
&&



USA.gov is the U.S. government's official web portal to all federal, state and local government web resources and services.